Tracking 22283 objects as of 28-Jan-2021
HD Live streaming from Space Station
objects crossing your sky now

BONUM 1

Track BONUM 1 now!
BONUM 1 is classified as:


NORAD ID: 25546
Int'l Code: 1998-068A
Perigee: 36,112.8 km
Apogee: 36,171.8 km
Inclination: 6.8 °
Period: 1,453.9 minutes
Semi major axis: 42513 km
RCS: 0.003 m2 (small)
Launch date: November 22, 1998
Source: Commonwealth of Independent States (former USSR) (CIS)
Launch site: AIR FORCE EASTERN TEST RANGE (AFETR)

Television broadcasting; 8 Ku-band, Siberia or Europe, selected.
aabbcc
Your satellite tracking list
Your tracking list is empty




NASA's NSSDC Master Catalog

Two Line Element Set (TLE):
1 25546U 98068A   21027.83305417 -.00000268  00000-0  00000-0 0  9993
2 25546   6.7782  60.7506 0006937 316.3662 207.2145  0.99041232 81066
Source of the keplerian elements: AFSPC